| time (UTC) | temp F | wind direction | speed MPH | gust MPH | rain 1hr in | rain 24hr in | rain mn in | humidity % | barometer mb |
| 20260508015306 | 67 | 114 | 1.0 | 3.0 | 0.00 | 0.00 | 0.00 | 18 | 1006.3 |
| 20260508014250 | 68 | 104 | 2.0 | 6.0 | 0.00 | 0.00 | 0.00 | 18 | 1006.2 |
| 20260508012110 | 70 | 56 | 3.0 | 8.0 | 0.00 | 0.00 | 0.00 | 17 | 1006.1 |
| 20260508011115 | 71 | 69 | 2.0 | 5.0 | 0.00 | 0.00 | 0.00 | 17 | 1006.2 |
| 20260508010112 | 72 | 52 | 3.0 | 9.0 | 0.00 | 0.00 | 0.00 | 17 | 1006.2 |
| 20260508005057 | 72 | 96 | 4.0 | 9.0 | 0.00 | 0.00 | 0.00 | 16 | 1006.2 |
| 20260508001834 | 74 | 174 | 3.0 | 11.0 | 0.00 | 0.00 | 0.00 | 15 | 1006.2 |
| 20260508000833 | 73 | 150 | 4.0 | 11.0 | 0.00 | 0.00 | 0.00 | 16 | 1006.2 |
| 20260507235818 | 74 | 180 | 4.0 | 12.0 | 0.00 | 0.00 | 0.00 | 16 | 1006.2 |
| 20260507234815 | 74 | 207 | 6.0 | 12.0 | 0.00 | 0.00 | 0.00 | 16 | 1006.2 |
| 20260507233828 | 74 | 111 | 5.0 | 12.0 | 0.00 | 0.00 | 0.00 | 15 | 1006.3 |
| 20260507232852 | 75 | 228 | 8.0 | 16.0 | 0.00 | 0.00 | 0.00 | 16 | 1006.3 |
| 20260507231840 | 74 | 150 | 7.0 | 16.0 | 0.00 | 0.00 | 0.00 | 16 | 1006.3 |
| 20260507225709 | 74 | 90 | 4.0 | 11.0 | 0.00 | 0.00 | 0.00 | 16 | 1006.4 |
| 20260507223619 | 73 | 211 | 7.0 | 15.0 | 0.00 | 0.00 | 0.00 | 16 | 1006.4 |
| 20260507221512 | 74 | 188 | 4.0 | 9.0 | 0.00 | 0.00 | 0.00 | 16 | 1006.7 |
| 20260507215346 | 73 | 218 | 8.0 | 18.0 | 0.00 | 0.00 | 0.00 | 16 | 1006.7 |
| 20260507214320 | 75 | 163 | 7.0 | 15.0 | 0.00 | 0.00 | 0.00 | 16 | 1007.0 |
| 20260507213248 | 76 | 192 | 6.0 | 14.0 | 0.00 | 0.00 | 0.00 | 15 | 1007.1 |
| 20260507212234 | 75 | 146 | 7.0 | 14.0 | 0.00 | 0.00 | 0.00 | 16 | 1007.5 |
| 20260507211247 | 74 | 136 | 3.0 | 11.0 | 0.00 | 0.00 | 0.00 | 15 | 1007.5 |
| 20260507210236 | 70 | 123 | 5.0 | 13.0 | 0.00 | 0.00 | 0.00 | 17 | 1007.8 |
| 20260507204041 | 76 | 128 | 7.0 | 16.0 | 0.00 | 0.00 | 0.00 | 14 | 1008.0 |
| 20260507203009 | 75 | 64 | 6.0 | 16.0 | 0.00 | 0.00 | 0.00 | 15 | 1008.1 |
| 20260507200918 | 74 | 19 | 5.0 | 13.0 | 0.00 | 0.00 | 0.00 | 16 | 1008.5 |
| 20260507195922 | 75 | 81 | 5.0 | 13.0 | 0.00 | 0.00 | 0.00 | 16 | 1008.6 |
| 20260507194934 | 74 | 55 | 6.0 | 15.0 | 0.00 | 0.00 | 0.00 | 16 | 1008.8 |
| 20260507193949 | 73 | 59 | 7.0 | 15.0 | 0.00 | 0.00 | 0.00 | 16 | 1009.0 |
| 20260507192939 | 73 | 61 | 3.0 | 13.0 | 0.00 | 0.00 | 0.00 | 17 | 1009.1 |
| 20260507192002 | 72 | 125 | 4.0 | 11.0 | 0.00 | 0.00 | 0.00 | 15 | 1009.2 |
| 20260507190932 | 73 | 67 | 3.0 | 10.0 | 0.00 | 0.00 | 0.00 | 16 | 1009.4 |
| 20260507185916 | 73 | 285 | 2.0 | 9.0 | 0.00 | 0.00 | 0.00 | 15 | 1009.6 |
| 20260507184932 | 73 | 32 | 6.0 | 13.0 | 0.00 | 0.00 | 0.00 | 14 | 1009.8 |
| 20260507183924 | 72 | 43 | 5.0 | 13.0 | 0.00 | 0.00 | 0.00 | 15 | 1009.9 |
| 20260507182944 | 72 | 22 | 5.0 | 12.0 | 0.00 | 0.00 | 0.00 | 15 | 1010.0 |
| 20260507181953 | 72 | 359 | 5.0 | 13.0 | 0.00 | 0.00 | 0.00 | 16 | 1010.3 |
| 20260507175824 | 71 | 313 | 5.0 | 16.0 | 0.00 | 0.00 | 0.00 | 17 | 1010.5 |
| 20260507174805 | 70 | 346 | 4.0 | 16.0 | 0.00 | 0.00 | 0.00 | 18 | 1010.7 |
| 20260507173825 | 69 | 166 | 4.0 | 9.0 | 0.00 | 0.00 | 0.00 | 19 | 1010.9 |
| 20260507172756 | 70 | 92 | 2.0 | 6.0 | 0.00 | 0.00 | 0.00 | 19 | 1011.0 |
| 20260507165427 | 68 | 59 | 3.0 | 11.0 | 0.00 | 0.00 | 0.00 | 21 | 1011.4 |
| 20260507164435 | 69 | 56 | 2.0 | 9.0 | 0.00 | 0.00 | 0.00 | 20 | 1011.5 |
| 20260507163424 | 67 | 36 | 4.0 | 9.0 | 0.00 | 0.00 | 0.00 | 22 | 1011.6 |
| 20260507162428 | 66 | 48 | 5.0 | 10.0 | 0.00 | 0.00 | 0.00 | 24 | 1011.7 |
| 20260507155141 | 64 | 53 | 6.0 | 11.0 | 0.00 | 0.00 | 0.00 | 25 | 1012.0 |
| 20260507154202 | 65 | 29 | 5.0 | 11.0 | 0.00 | 0.00 | 0.00 | 25 | 1012.0 |
| 20260507152052 | 65 | 49 | 4.0 | 11.0 | 0.00 | 0.00 | 0.00 | 26 | 1012.1 |
| 20260507151116 | 65 | 19 | 4.0 | 11.0 | 0.00 | 0.00 | 0.00 | 25 | 1012.2 |
| 20260507150114 | 65 | 60 | 3.0 | 7.0 | 0.00 | 0.00 | 0.00 | 26 | 1012.3 |
| 20260507145053 | 63 | 72 | 4.0 | 8.0 | 0.00 | 0.00 | 0.00 | 27 | 1012.3 |
| 20260507143020 | 64 | 14 | 3.0 | 6.0 | 0.00 | 0.00 | 0.00 | 27 | 1012.3 |
| 20260507142003 | 63 | 38 | 3.0 | 6.0 | 0.00 | 0.00 | 0.00 | 27 | 1012.2 |
| 20260507141019 | 63 | 353 | 2.0 | 5.0 | 0.00 | 0.00 | 0.00 | 27 | 1012.3 |
| 20260507134924 | 57 | 247 | 0.0 | 0.0 | 0.00 | 0.00 | 0.00 | 33 | 1012.6 |
| 20260507133934 | 55 | 246 | 0.0 | 1.0 | 0.00 | 0.00 | 0.00 | 32 | 1012.5 |
| 20260507132948 | 54 | 248 | 0.0 | 1.0 | 0.00 | 0.00 | 0.00 | 32 | 1012.4 |
| 20260507130820 | 51 | 132 | 0.0 | 1.0 | 0.00 | 0.00 | 0.00 | 34 | 1012.3 |
| 20260507124645 | 50 | 132 | 0.0 | 1.0 | 0.00 | 0.00 | 0.00 | 36 | 1012.0 |
| 20260507123708 | 50 | 132 | 0.0 | 0.0 | 0.00 | 0.00 | 0.00 | 37 | 1012.0 |
| 20260507122633 | 51 | 132 | 1.0 | 2.0 | 0.00 | 0.00 | 0.00 | 37 | 1012.0 |
| 20260507121632 | 52 | 132 | 1.0 | 3.0 | 0.00 | 0.00 | 0.00 | 38 | 1011.9 |
| 20260507120634 | 53 | 270 | 1.0 | 5.0 | 0.00 | 0.00 | 0.00 | 38 | 1011.7 |
| 20260507115618 | 54 | 244 | 4.0 | 8.0 | 0.00 | 0.00 | 0.00 | 37 | 1011.7 |
| 20260507113454 | 54 | 290 | 4.0 | 6.0 | 0.00 | 0.00 | 0.00 | 38 | 1011.8 |
| 20260507112452 | 54 | 307 | 3.0 | 6.0 | 0.00 | 0.00 | 0.00 | 38 | 1011.8 |
| 20260507111507 | 54 | 296 | 1.0 | 3.0 | 0.00 | 0.00 | 0.00 | 37 | 1012.0 |
| 20260507110513 | 53 | 296 | 0.0 | 2.0 | 0.00 | 0.00 | 0.00 | 37 | 1012.1 |
| 20260507105530 | 52 | 348 | 1.0 | 3.0 | 0.00 | 0.00 | 0.00 | 37 | 1012.1 |
| 20260507104521 | 52 | 346 | 2.0 | 6.0 | 0.00 | 0.00 | 0.00 | 38 | 1012.0 |
| 20260507103544 | 52 | 261 | 4.0 | 6.0 | 0.00 | 0.00 | 0.00 | 37 | 1012.1 |
| 20260507102524 | 54 | 250 | 3.0 | 5.0 | 0.00 | 0.00 | 0.00 | 35 | 1012.2 |
| 20260507101513 | 54 | 253 | 4.0 | 6.0 | 0.00 | 0.00 | 0.00 | 34 | 1012.2 |
| 20260507100503 | 55 | 252 | 5.0 | 8.0 | 0.00 | 0.00 | 0.00 | 33 | 1012.3 |
| 20260507095527 | 54 | 245 | 5.0 | 8.0 | 0.00 | 0.00 | 0.00 | 33 | 1012.3 |
| 20260507094526 | 53 | 264 | 4.0 | 6.0 | 0.00 | 0.00 | 0.00 | 33 | 1012.3 |
| 20260507093517 | 52 | 255 | 3.0 | 4.0 | 0.00 | 0.00 | 0.00 | 32 | 1012.4 |
| 20260507092500 | 53 | 229 | 2.0 | 3.0 | 0.00 | 0.00 | 0.00 | 31 | 1012.5 |
| 20260507091457 | 54 | 263 | 3.0 | 4.0 | 0.00 | 0.00 | 0.00 | 31 | 1012.4 |
| 20260507090521 | 54 | 268 | 3.0 | 4.0 | 0.00 | 0.00 | 0.00 | 30 | 1012.6 |
| 20260507085450 | 55 | 280 | 1.0 | 3.0 | 0.00 | 0.00 | 0.00 | 29 | 1012.6 |
| 20260507083308 | 53 | 261 | 0.0 | 2.0 | 0.00 | 0.00 | 0.00 | 30 | 1012.8 |
| 20260507082319 | 52 | 260 | 1.0 | 3.0 | 0.00 | 0.00 | 0.00 | 31 | 1012.8 |
| 20260507080228 | 54 | 223 | 2.0 | 3.0 | 0.00 | 0.00 | 0.00 | 29 | 1013.0 |
| 20260507075154 | 54 | 231 | 3.0 | 6.0 | 0.00 | 0.00 | 0.00 | 29 | 1013.1 |
| 20260507073020 | 55 | 245 | 4.0 | 8.0 | 0.00 | 0.00 | 0.00 | 28 | 1013.1 |
| 20260507065740 | 56 | 209 | 6.0 | 11.0 | 0.00 | 0.00 | 0.00 | 27 | 1013.3 |
| 20260507064744 | 56 | 243 | 6.0 | 11.0 | 0.00 | 0.00 | 0.00 | 27 | 1013.3 |
| 20260507062556 | 56 | 236 | 6.0 | 11.0 | 0.00 | 0.00 | 0.00 | 27 | 1013.2 |
| 20260507061543 | 55 | 226 | 6.0 | 9.0 | 0.00 | 0.00 | 0.00 | 27 | 1013.4 |
| 20260507060555 | 55 | 252 | 5.0 | 8.0 | 0.00 | 0.00 | 0.00 | 27 | 1013.5 |
| 20260507055535 | 55 | 249 | 5.0 | 8.0 | 0.00 | 0.00 | 0.00 | 27 | 1013.6 |
| 20260507054540 | 55 | 242 | 4.0 | 6.0 | 0.00 | 0.00 | 0.00 | 27 | 1013.6 |
| 20260507053507 | 55 | 261 | 4.0 | 5.0 | 0.00 | 0.00 | 0.00 | 27 | 1013.6 |
| 20260507052520 | 55 | 252 | 3.0 | 6.0 | 0.00 | 0.00 | 0.00 | 27 | 1013.6 |
| 20260507051448 | 55 | 249 | 4.0 | 8.0 | 0.00 | 0.00 | 0.00 | 27 | 1013.6 |
| 20260507050457 | 55 | 241 | 5.0 | 8.0 | 0.00 | 0.00 | 0.00 | 26 | 1013.5 |
| 20260507045516 | 55 | 259 | 5.0 | 7.0 | 0.00 | 0.00 | 0.00 | 27 | 1013.4 |
| 20260507044522 | 54 | 232 | 4.0 | 6.0 | 0.00 | 0.00 | 0.00 | 27 | 1013.4 |
| 20260507043514 | 54 | 229 | 4.0 | 5.0 | 0.00 | 0.00 | 0.00 | 27 | 1013.4 |
| 20260507042506 | 55 | 233 | 3.0 | 5.0 | 0.00 | 0.00 | 0.00 | 27 | 1013.3 |
| 20260507041521 | 55 | 221 | 2.0 | 4.0 | 0.00 | 0.00 | 0.00 | 26 | 1013.3 |
| 20260507040502 | 55 | 238 | 3.0 | 5.0 | 0.00 | 0.00 | 0.00 | 26 | 1013.2 |
| 20260507035454 | 56 | 230 | 4.0 | 7.0 | 0.00 | 0.00 | 0.00 | 26 | 1013.0 |
| 20260507034438 | 55 | 211 | 4.0 | 7.0 | 0.00 | 0.00 | 0.00 | 26 | 1012.8 |
| 20260507033501 | 56 | 226 | 4.0 | 6.0 | 0.00 | 0.00 | 0.00 | 25 | 1012.7 |
| 20260507032444 | 56 | 210 | 4.0 | 6.0 | 0.00 | 0.00 | 0.00 | 25 | 1012.6 |
| 20260507031411 | 56 | 223 | 4.0 | 6.0 | 0.00 | 0.00 | 0.00 | 25 | 1012.4 |
| 20260507030351 | 56 | 221 | 3.0 | 6.0 | 0.00 | 0.00 | 0.00 | 24 | 1012.2 |
| 20260507024217 | 57 | 214 | 4.0 | 9.0 | 0.00 | 0.00 | 0.00 | 23 | 1011.8 |
| 20260507023228 | 58 | 211 | 4.0 | 9.0 | 0.00 | 0.00 | 0.00 | 22 | 1011.7 |
| 20260507022206 | 58 | 182 | 6.0 | 12.0 | 0.00 | 0.00 | 0.00 | 22 | 1011.5 |
| 20260507021144 | 59 | 217 | 6.0 | 12.0 | 0.00 | 0.00 | 0.00 | 21 | 1011.3 |